Content
SEND FEEDBACK

Daily
Averages
Monthly
Summary
United States of America

GASCON, NEW MEXICO


Home > North America > United States > New Mexico
Elevation: 2584 meters     Latitude: 35 50N     Longitude: 105 40W

WEATHER
 
SELECT A DAY
Number of Records: 172,103;   Date Range: 1/1/95 - 7/7/14
 
SHARE

PRINT THIS DATA

[ ← Previous Day ]
WEATHER ALMANAC - 31 JANUARY, 2013
[ Next Day → ]
[ °F ]   °C
Weather ElementAverageHighLow
Temperature1.3 °C8.3 °C (2:53 pm)-5.6 °C (4:53 am)
Dewpoint-7.5 °C-5.6 °C (8:53 am)-8.3 °C (2:53 am)
Humidity55.7 %82 % (4:53 am)30 % (2:53 pm)
Barometer1023 hPa1025.1 hPa (7:53 am)1020.7 hPa (1:53 pm)
Wind Speed14.2 km/h24.1 km/h (1:53 pm)
Wind Gust33.3 km/h (9:53 am)
Weather ElementAverage
Visibility16.1 km
Wind DirectionWSW (242.7 °)

Weather ElementTotal
Precipitation---
Heating Degree Days17 (Base 18.3)
Averaged from 22 records on 31 January, 2013
WEATHER CONDITIONS BREAKOUT
WIND DIRECTION BREAKOUT
WEATHER BY HOUR - 31 JANUARY, 2013
[ °F ]   °C
Local TimeTemperatureDewpointHumidityBarometerVisibilityWind DirectionWind SpeedGust SpeedPrecipitationEventsConditions
1:53 AM-3.9 °C-7.8 °C75 %1021.3 hPa16.1 kmNorth (360°)13 km/hClear
2:53 AM-4.4 °C-8.3 °C75 %1021 hPa16.1 kmNNW (340°)13 km/hClear
3:53 AM-4.4 °C-8.3 °C75 %1021.7 hPa16.1 kmNNW (330°)11.1 km/hClear
4:53 AM-5.6 °C-8.3 °C82 %1022.4 hPa16.1 kmNNW (330°)11.1 km/hClear
5:53 AM-5.6 °C-8.3 °C82 %1023.7 hPa16.1 kmNNW (330°)7.4 km/hClear
6:53 AM-5.6 °C-8.3 °C82 %1024.4 hPa16.1 kmNNW (330°)5.6 km/hClear
7:53 AM-2.8 °C-6.7 °C75 %1025.1 hPa16.1 kmNorth (10°)13 km/hClear
8:53 AM0.6 °C-5.6 °C64 %1024.4 hPa16.1 kmNNW (340°)20.4 km/hClear
9:53 AM2.8 °C-6.1 °C52 %1024.4 hPa16.1 kmNorth (350°)22.2 km/h33.3 km/hClear
10:53 AM4.4 °C-6.7 °C45 %1024.7 hPa16.1 kmNorth (350°)20.4 km/hClear
11:53 AM5.6 °C-7.2 °C40 %1022.7 hPa16.1 kmNorth (10°)20.4 km/hClear
12:53 PM7.2 °C-7.2 °C36 %1021.3 hPa16.1 kmNorth (360°)20.4 km/hClear
1:53 PM7.8 °C-7.8 °C33 %1020.7 hPa16.1 kmNorth (10°)24.1 km/h31.5 km/hClear
2:53 PM8.3 °C-8.3 °C30 %1021.7 hPa16.1 kmNorth (10°)13 km/hClear
3:53 PM7.8 °C-7.8 °C33 %1022.4 hPa16.1 kmWSW (250°)16.7 km/h25.9 km/hClear
4:53 PM7.2 °C-7.8 °C34 %1022.7 hPa16.1 kmWest (270°)7.4 km/hClear
5:53 PM4.4 °C-8.3 °C40 %1023.4 hPa16.1 kmSW (220°)9.3 km/hClear
6:53 PM2.8 °C-7.8 °C46 %1024.4 hPa16.1 kmCalmClear
7:53 PM0.6 °C-7.2 °C56 %1024.4 hPa16.1 kmEast (80°)9.3 km/hClear
9:53 PM0.6 °C-7.2 °C56 %1022.7 hPa16.1 kmNorth (350°)22.2 km/hClear
10:53 PM0 °C-7.2 °C59 %1023 hPa16.1 kmNorth (360°)14.8 km/hClear
11:53 PM0.6 °C-7.2 °C56 %1022.4 hPa16.1 kmNorth (350°)16.7 km/hClear
Hourly data recorded from KSAF, located 0 kilometers away from Gascon, New Mexico







STORIES FROM OUR PARTNERS